Salem, OR

8:31 AM PDT on September 25, 2016 (GMT -0700)
McNary

Weather History for KSLE - July, 2013

Change the Weather History Date:

Tuesday, July 2, 2013

  Actual Average Record
Temperature  
Mean Temperature 78 °F 65 °F  
Max Temperature 93 °F 79 °F 104 °F (1942)
Min Temperature 63 °F 52 °F 37 °F (1962)
Degree Days  
Heating Degree Days 0 2  
Month to date heating degree days 0 4  
Since 1 June heating degree days 79 134  
Since 1 July heating degree days 0 4  
Cooling Degree Days 13 2  
Month to date cooling degree days 27 4  
Year to date cooling degree days 90 41  
Since 1 June cooling degree days 80 32  
Growing Degree Days 27 (Base 50)    
Moisture  
Dew Point 60 °F    
Average Humidity 60    
Maximum Humidity 87    
Minimum Humidity 33    
Precipitation  
Precipitation 0.00 in 0.02 in 0.98 in (1916)
Month to date precipitation 0.00 0.04  
Year to date precipitation 11.61 21.13  
Snow  
Snow 0.00 in - - ()
Month to date snowfall 0.0  
Since 1 June snowfall 0.0  
Snow Depth 0.00 in    
Sea Level Pressure  
Sea Level Pressure 30.03 in    
Wind  
Wind Speed 5 mph (NNW)    
Max Wind Speed 14 mph    
Max Gust Speed 21 mph    
Visibility 10 miles    
Events      
T = Trace of Precipitation, MM = Missing Value Source: NWS Daily Summary

Daily Weather History Graph

Daily Weather History Graph

Search for Another Location

Airport or City:

Trip Planner

Search our weather history database for the weather conditions in past years. The results will help you decide how hot, cold, wet, or windy it might be!

Date:

Astronomy

Jul. 02, 2013 Rise Set
Actual Time 5:30 AM PDT 9:01 PM PDT
Civil Twilight 4:53 AM PDT 9:38 PM PDT
Nautical Twilight 4:04 AM PDT 10:27 PM PDT
Astronomical Twilight 3:00 AM PDT 11:30 PM PDT
Moon 1:43 AM PDT (7/2) 4:14 PM PDT (7/2)
Length of Visible Light 16h 45m
Length of Day
15h 31m
Waning Crescent, 25% of the Moon is Illuminated
Jul 2
Waning Crescent
Jul 8
New
Jul 15
First Quarter
Jul 22
Full
Jul 29
Last Quarter

Hourly Weather History & Observations

Time (PDT) Temp. Heat Index Dew Point Humidity Pressure Visibility Wind Dir Wind Speed Gust Speed Precip Events Conditions
12:56 AM 70.0 °F - 61.0 °F 73% 30.00 in 10.0 mi NNE 4.6 mph - N/A   Clear
1:56 AM 66.9 °F - 61.0 °F 81% 30.02 in 10.0 mi NNE 3.5 mph - N/A   Clear
2:56 AM 66.0 °F - 60.1 °F 81% 30.02 in 10.0 mi North 3.5 mph - N/A   Clear
3:56 AM 64.0 °F - 60.1 °F 87% 30.02 in 10.0 mi North 5.8 mph - N/A   Clear
4:56 AM 64.0 °F - 60.1 °F 87% 30.04 in 10.0 mi NW 4.6 mph - N/A   Clear
5:56 AM 64.0 °F - 60.1 °F 87% 30.04 in 10.0 mi North 4.6 mph - N/A   Clear
6:56 AM 84.2 °F 84.4 °F 60.8 °F 45% 30.06 in 10.0 mi Calm Calm - N/A   Clear
7:56 AM 70.0 °F - 60.1 °F 71% 30.07 in 10.0 mi Calm Calm - N/A   Clear
8:56 AM 73.0 °F - 60.1 °F 64% 30.06 in 10.0 mi NNE 5.8 mph - N/A   Clear
9:56 AM 75.9 °F - 60.1 °F 58% 30.05 in 10.0 mi North 3.5 mph - N/A   Clear
10:56 AM 80.1 °F 80.9 °F 60.1 °F 50% 30.04 in 10.0 mi Variable 5.8 mph - N/A   Clear
11:56 AM 82.9 °F 83.3 °F 61.0 °F 47% 30.04 in 10.0 mi Calm Calm - N/A   Clear
12:56 PM 84.9 °F 85.4 °F 62.1 °F 46% 30.03 in 10.0 mi NNW 5.8 mph - N/A   Clear
1:56 PM 88.0 °F 88.7 °F 63.0 °F 43% 30.01 in 10.0 mi NNW 8.1 mph - N/A   Clear
2:56 PM 91.0 °F 91.9 °F 63.0 °F 39% 30.01 in 10.0 mi NNE 8.1 mph - N/A   Clear
3:56 PM 93.0 °F 92.7 °F 60.1 °F 33% 30.00 in 10.0 mi Variable 3.5 mph - N/A   Clear
4:56 PM 91.9 °F 92.9 °F 63.0 °F 38% 29.99 in 10.0 mi NW 9.2 mph - N/A   Clear
5:56 PM 90.0 °F 90.0 °F 61.0 °F 38% 29.99 in 10.0 mi NNW 9.2 mph - N/A   Clear
6:56 PM 87.1 °F 86.7 °F 60.1 °F 40% 29.99 in 10.0 mi NW 11.5 mph - N/A   Clear
7:56 PM 82.9 °F 82.8 °F 59.0 °F 44% 30.00 in 10.0 mi NNW 10.4 mph - N/A   Clear
8:56 PM 78.1 °F - 57.0 °F 48% 30.01 in 10.0 mi NNW 9.2 mph - N/A   Clear
9:56 PM 73.9 °F - 55.9 °F 53% 30.04 in 10.0 mi NNW 4.6 mph - N/A   Clear
10:56 PM 72.0 °F - 55.9 °F 57% 30.04 in 10.0 mi NNW 8.1 mph - N/A   Clear
11:56 PM 69.1 °F - 55.9 °F 63% 30.06 in 10.0 mi North 5.8 mph - N/A   Clear